Location: Unspecified
(0.0000°N, 0.0000°E)
Time: 06:34:57
(UTC+00:00)

deb Explorer IX - Visible Passes

Search period start: 24 September 2023 00:00
Search period end: 04 October 2023 00:00
Orbit: 528 x 969 km, 38.8° (Epoch: 23 September)

Date Brightness Start Highest point End Pass type
(mag) Time Alt. Az. Time Alt. Az. Time Alt. Az.
30 Sep ? 19:46:22 10° SSW 19:46:23 10° SSW 19:46:23 10° SSW visible
01 Oct ? 19:00:49 10° S 19:02:38 15° SSE 19:02:38 15° SSE visible
02 Oct ? 19:57:09 10° SW 19:58:34 21° SW 19:58:34 21° SW visible
03 Oct ? 19:10:31 10° SW 19:14:35 55° SE 19:14:42 55° SE visible
